Wind_Speed
20 21 22 22 23 22 21 22 22 22 22 22 21 19 18 18 16 13 12 11 13 15 16 16 14 13 11 11 9 10 11 12 12 12 12 11 9 10 13 16 15 13 13 15 17 20 21 22 24 24 23 22 19 17 15 15 16 18 18 17 15 14 15 17 19 21 24 26 28 31 33 31 29 29 29 31 31 31 30 28 26 26 27 28 30
18 18 19 19 18 17 18 19 20 20 20 19 18 18 18 18 17 16 16 14 13 14 15 15 13 12 12 12 9 7 8 11 11 10 10 10 11 12 16 15 13 12 13 16 18 20 22 23 23 22 20 18 17 15 13 14 17 19 19 17 17 16 17 20 22 25 26 27 29 33 33 31 30 31 33 32 32 31 31 28 26 26 27 28 29
13 14 15 16 14 13 15 16 17 18 18 18 17 18 18 19 18 17 18 17 14 13 14 14 14 13 13 13 11 8 7 10 10 10 10 12 14 16 17 13 10 13 14 15 17 19 21 22 21 19 17 17 17 15 14 15 17 19 19 19 18 19 20 23 26 27 27 28 31 34 33 31 32 34 35 33 32 31 29 27 25 26 26 27 27
10 11 13 13 12 11 13 14 15 14 15 16 17 17 17 18 18 17 17 18 16 15 15 15 15 15 15 14 13 11 8 9 10 10 10 12 15 17 14 9 10 14 14 15 17 18 19 20 19 16 15 15 16 16 15 16 17 18 19 20 21 22 25 28 29 28 28 31 34 34 33 34 36 36 34 32 29 26 24 24 25 26 27 26 26
10 10 11 12 12 11 12 12 12 12 12 14 16 17 17 17 17 17 17 17 17 17 17 17 17 16 17 16 12 11 10 9 10 11 9 11 13 12 10 10 13 15 16 17 16 14 15 16 16 15 14 14 14 16 17 17 19 19 20 21 24 27 29 31 30 29 30 34 36 36 36 37 37 35 31 27 24 23 24 27 28 28 27 26 26
9 9 10 11 12 12 12 11 11 11 12 14 16 17 18 18 18 18 17 17 17 17 18 18 18 18 18 16 12 10 12 11 12 11 10 13 13 12 13 14 17 16 16 15 13 11 12 13 14 14 14 13 13 15 17 18 20 21 21 22 25 28 31 32 31 32 33 37 38 38 38 37 34 29 25 24 25 27 30 30 29 28 27 27 26
7 8 10 11 12 12 12 12 12 12 13 15 16 18 20 20 19 19 18 18 17 18 18 19 19 19 19 16 13 14 14 13 14 12 11 15 16 18 19 19 19 17 14 13 13 11 10 12 13 14 14 14 14 15 17 19 21 22 23 23 25 28 31 32 32 34 36 38 40 40 38 35 30 26 25 26 29 31 31 29 27 27 26 25 25
6 8 9 10 11 11 12 12 12 12 13 14 15 17 18 19 19 19 19 18 18 17 16 17 19 19 18 15 15 16 15 13 14 14 14 17 19 21 20 18 17 15 14 14 14 12 11 13 14 15 16 15 15 16 18 20 21 22 23 24 26 28 31 33 35 37 38 40 42 41 38 33 27 25 26 28 29 29 27 25 24 24 24 23 23
8 8 9 9 9 9 10 10 10 11 12 13 14 15 16 16 17 18 19 18 17 15 14 16 17 16 16 15 15 15 14 14 15 16 17 18 19 19 16 13 13 13 14 14 14 13 13 14 14 15 17 17 17 18 21 22 22 22 23 25 26 29 32 34 36 38 40 42 42 38 34 29 25 25 26 26 26 24 21 20 21 21 21 21 21
7 8 8 8 8 8 9 9 10 11 12 13 15 16 16 16 16 16 17 17 16 14 13 15 16 15 16 17 17 14 12 14 14 14 16 16 16 14 12 10 10 12 12 14 15 14 13 14 15 16 18 20 21 22 24 24 22 22 24 24 26 30 32 34 35 38 40 40 37 33 29 25 24 24 24 23 22 19 18 18 18 19 19 19 19
7 7 7 7 8 8 9 9 9 10 11 11 12 14 14 15 16 16 16 15 14 12 12 16 16 15 17 17 17 15 14 15 16 18 18 15 14 14 12 10 10 11 12 13 14 14 16 17 17 18 20 22 23 24 24 24 24 25 25 24 27 30 32 34 36 38 38 36 31 27 24 22 22 21 20 19 18 17 17 16 16 17 18 18 18
10 9 9 9 9 9 9 9 9 9 10 10 11 11 11 12 15 15 15 14 14 12 13 16 17 16 18 18 18 18 18 20 22 23 22 16 14 15 13 12 11 11 11 11 13 16 20 21 20 20 22 24 24 24 24 24 25 26 26 26 29 33 35 37 37 35 33 29 24 21 18 17 16 16 16 16 16 16 15 15 15 15 15 15 15
12 12 12 12 11 10 10 10 10 10 10 10 10 11 11 10 11 12 12 12 12 13 13 15 16 16 18 20 21 23 23 23 23 23 21 17 15 15 14 13 13 12 11 12 15 18 21 22 22 23 25 26 25 24 23 23 24 25 28 30 32 35 36 35 33 30 25 21 17 15 13 13 14 15 15 15 15 14 13 13 13 13 13 13 13
11 12 12 12 12 11 10 9 10 10 9 9 8 9 12 11 10 10 10 10 10 11 13 14 15 15 17 20 22 22 22 22 19 17 18 17 16 17 16 16 15 15 15 16 18 21 23 23 24 25 26 27 26 24 23 23 26 29 31 33 33 33 32 29 26 22 18 15 14 13 13 13 14 14 14 14 13 11 11 11 11 11 11 12 13
7 8 8 8 9 9 9 9 9 9 7 7 6 8 11 11 11 11 10 10 9 9 10 12 14 15 17 19 19 18 17 16 13 12 14 16 17 18 18 19 18 17 18 19 21 23 23 24 25 25 25 25 25 25 25 26 29 31 32 32 30 28 26 23 19 16 14 14 13 13 14 14 13 13 13 12 11 11 11 11 11 11 12 13 14
6 6 5 5 5 5 7 8 8 7 6 5 5 8 10 11 11 11 12 11 11 9 8 8 9 10 10 11 11 11 11 10 10 12 14 16 17 18 19 20 20 20 20 22 23 22 22 23 23 21 20 21 24 26 27 29 30 31 30 27 25 22 20 17 14 13 13 14 13 14 15 15 14 14 13 13 12 12 12 12 12 12 14 15 16
7 7 5 4 3 4 6 7 6 5 6 4 4 8 9 9 11 13 14 12 12 10 8 7 7 6 5 4 5 7 8 9 11 13 15 17 18 20 21 22 22 22 22 23 23 22 22 21 20 19 19 20 23 27 29 30 28 26 23 20 18 17 15 13 12 12 13 13 14 14 15 15 16 16 15 15 14 14 13 13 13 15 16 16 15
8 8 6 5 4 3 4 5 6 7 7 4 5 9 9 9 12 14 13 12 11 10 9 8 7 6 6 5 7 7 9 10 12 13 15 17 18 20 21 22 23 23 23 23 22 21 20 20 19 19 19 19 21 24 24 23 20 18 15 14 13 13 13 12 13 13 14 14 14 15 15 15 16 17 16 16 15 15 14 14 16 16 15 13 10
8 7 6 5 4 3 4 5 7 8 5 3 5 10 11 11 11 11 11 10 9 10 11 8 5 5 6 8 10 10 12 12 13 14 14 16 18 20 21 22 22 22 21 20 20 19 18 19 18 18 18 18 18 17 15 13 12 10 10 11 12 12 12 13 14 15 15 15 16 16 16 15 16 16 16 16 16 16 16 16 15 13 10 7 6
8 6 6 5 4 3 5 5 6 6 5 5 8 11 12 11 10 10 9 8 7 7 8 7 5 6 7 8 9 11 12 13 14 14 14 16 18 19 18 18 18 18 18 18 18 17 16 16 15 15 13 12 11 10 9 8 7 7 9 11 12 11 12 14 14 15 15 16 16 17 16 15 15 15 15 16 15 15 15 13 9 7 6 6 7
8 6 5 4 3 3 5 7 6 6 8 10 13 14 13 10 9 10 9 7 6 6 6 7 8 8 8 8 8 10 11 11 11 10 11 12 13 13 12 13 14 15 16 16 15 13 11 10 9 8 7 7 7 7 6 6 7 8 10 11 11 12 13 14 14 14 15 16 15 15 14 13 12 12 13 13 12 10 7 5 5 7 8 9 11
8 7 6 4 3 2 4 6 7 7 8 11 14 14 12 10 10 10 8 8 7 7 8 9 10 10 10 9 8 7 9 10 10 9 9 8 8 9 9 11 11 12 12 11 9 7 5 3 3 3 5 5 5 5 5 6 7 8 10 11 12 12 13 13 13 14 14 13 13 12 10 8 8 8 8 7 5 4 6 8 10 12 13 14 15
9 7 5 4 3 2 2 4 6 7 7 8 10 10 10 11 10 8 8 8 9 10 10 10 11 10 10 9 7 4 4 6 8 8 7 7 7 7 8 8 8 9 9 7 5 3 2 3 4 4 3 3 4 4 5 6 7 9 11 11 12 12 12 12 12 12 10 9 8 7 6 8 8 8 8 10 11 13 14 15 16 17 16 16 15
9 8 6 5 4 2 1 2 3 4 5 5 6 6 7 8 8 7 7 7 7 9 8 7 6 5 6 5 4 3 4 5 5 5 5 5 5 5 5 7 9 9 8 6 4 4 4 5 4 4 3 4 4 5 6 7 8 9 10 11 11 11 10 9 8 7 7 8 9 11 13 15 16 17 19 20 20 20 20 20 20 19 17 15 13
10 8 7 6 5 3 1 0 1 3 3 3 3 3 3 4 6 6 5 4 4 4 4 3 2 2 2 2 2 2 3 3 3 2 2 2 4 5 7 8 9 8 7 6 5 5 5 5 4 4 4 5 5 6 6 7 7 8 10 10 10 10 9 9 10 12 14 16 18 20 22 23 24 25 26 25 24 23 22 21 20 18 16 13 11
11 9 8 6 5 3 3 2 1 2 3 4 3 3 1 1 2 2 2 2 2 1 1 1 1 0 1 2 2 2 1 1 2 3 4 5 7 8 9 9 9 8 7 6 5 4 4 5 5 5 5 6 6 6 5 6 8 10 11 12 13 14 15 17 19 20 22 23 24 25 26 27 28 27 26 25 24 24 22 21 20 18 16 15 15
11 10 8 7 6 6 6 4 4 4 5 5 5 3 2 2 1 1 1 1 2 2 2 2 1 1 2 2 2 2 3 6 7 7 8 8 8 9 9 9 8 8 7 6 4 3 4 5 5 5 5 7 7 6 5 8 11 13 14 16 18 19 21 23 24 24 25 26 27 27 27 27 27 27 26 26 25 25 24 23 22 21 20 19 19
12 10 9 8 9 9 8 7 7 7 7 7 6 5 4 3 2 2 2 2 3 3 2 2 3 4 5 5 6 7 8 10 10 9 9 8 8 8 8 8 7 6 6 6 4 4 4 5 5 6 7 7 7 7 9 12 14 16 17 18 19 21 23 24 24 25 26 27 27 28 28 29 29 29 29 29 29 28 27 27 26 25 24 24 23
12 11 10 10 11 11 11 10 10 9 9 8 7 6 6 5 4 3 3 3 4 3 4 5 6 7 8 9 10 10 11 11 10 9 8 7 6 6 6 6 6 6 6 6 5 4 4 4 6 7 8 9 9 10 13 15 16 17 18 19 21 23 24 25 25 27 28 28 29 30 31 31 32 32 32 31 31 31 30 30 29 29 28 28 27
13 11 11 12 12 13 12 12 12 11 11 10 9 8 7 6 4 4 4 4 5 6 7 9 9 10 11 11 12 11 11 9 8 7 6 5 5 5 4 5 5 5 7 8 6 6 6 7 9 11 12 13 14 15 16 16 17 18 19 21 23 25 26 27 28 30 31 32 32 33 34 34 34 34 34 34 34 33 33 33 33 33 32 32 32
14 12 12 13 14 14 13 13 13 13 12 11 10 9 7 5 5 6 7 7 8 9 10 10 11 12 12 12 11 10 9 7 6 5 5 4 4 5 5 5 6 7 9 9 8 8 10 12 13 14 16 17 18 18 18 18 19 21 23 26 28 29 30 32 33 34 35 35 36 36 36 36 36 36 36 36 36 35 35 35 35 35 35 35 35
15 13 12 13 14 14 14 14 14 13 12 11 10 9 8 7 8 10 10 10 11 11 11 12 12 12 11 10 9 8 7 5 4 4 4 4 4 5 6 6 8 9 11 10 10 12 15 17 18 18 19 20 21 21 21 22 24 27 30 32 34 35 36 37 37 38 38 38 38 38 38 38 38 38 38 38 38 37 37 37 37 37 37 37 37
16 14 13 14 14 15 15 15 14 13 12 12 12 12 12 12 13 13 13 13 12 12 12 12 12 11 9 8 7 7 5 3 2 4 5 6 6 7 8 9 11 12 13 13 14 18 20 21 22 22 22 24 25 26 27 29 31 33 35 37 39 39 39 39 39 39 39 39 39 39 39 39 39 39 39 39 39 38 38 38 38 38 38 38 39
18 15 13 14 14 15 16 15 14 14 14 15 16 16 16 15 15 15 15 14 13 13 13 12 11 9 7 6 6 5 4 3 4 6 8 9 9 10 12 12 13 15 16 18 20 23 25 25 25 26 28 30 31 33 34 35 36 37 39 40 41 41 40 40 40 39 39 39 39 39 39 39 38 38 38 38 38 38 38 39 39 39 39 39 39
18 15 13 13 14 15 16 16 15 15 16 17 18 18 17 17 17 16 16 15 14 14 13 11 9 8 7 6 5 5 4 4 6 9 10 12 12 13 15 16 17 19 22 25 27 28 29 29 30 32 34 35 37 38 38 39 39 39 40 41 41 40 40 40 39 39 39 39 39 39 38 38 37 37 36 36 36 37 37 37 38 38 38 39 39
19 16 13 13 13 15 17 16 15 16 16 17 17 17 17 17 16 16 15 14 13 13 12 10 9 7 7 7 7 6 6 7 9 11 13 14 15 16 18 20 22 26 29 31 31 32 34 35 37 38 38 39 39 39 39 38 38 38 38 39 39 38 38 38 38 38 37 37 37 37 36 36 36 36 35 35 35 35 35 36 36 36 36 37 37
19 17 14 12 13 14 16 16 15 15 15 15 15 15 16 16 16 15 14 14 13 12 11 10 8 7 8 8 8 9 10 11 12 14 16 17 17 19 22 26 29 33 35 36 36 38 39 40 40 39 39 38 37 37 36 36 36 36 36 37 37 37 37 37 37 36 36 35 35 34 34 34 34 33 33 33 34 34 35 35 35 35 35 35 35
20 17 14 12 12 13 15 16 15 15 14 13 13 14 15 15 15 15 14 14 13 12 11 10 9 10 11 11 12 13 13 14 15 17 18 18 20 23 27 32 35 37 39 40 41 42 41 40 39 38 37 36 36 35 35 36 36 36 36 37 37 37 37 36 35 35 34 34 33 33 33 33 32 32 32 32 32 33 33 34 34 34 34 34 34
20 18 15 13 12 12 14 15 15 14 13 13 13 13 13 14 14 14 14 14 13 12 12 12 12 13 14 15 16 16 16 17 19 19 19 21 24 27 32 36 39 41 42 43 42 41 39 38 37 37 36 36 36 36 37 37 37 37 37 37 36 36 35 35 34 34 33 33 32 32 31 31 31 31 31 31 31 32 32 33 33 33 34 34 34
20 18 16 14 12 12 13 14 14 14 14 14 13 12 12 13 14 14 14 14 14 13 13 14 15 15 15 17 18 18 18 20 21 22 23 26 29 31 35 38 41 43 43 42 40 38 38 37 37 37 37 37 37 38 38 38 38 38 37 36 35 34 34 34 33 33 32 31 31 30 30 30 30 30 30 30 31 31 31 32 32 32 32 33 34
20 19 17 14 13 12 12 13 14 14 14 14 13 12 12 13 13 14 15 15 15 15 16 16 16 16 17 18 19 20 20 22 24 25 27 30 31 34 37 39 42 43 41 39 38 37 37 38 38 38 38 37 38 38 38 38 37 37 36 35 34 34 34 33 32 32 31 31 30 29 29 30 30 30 30 30 30 31 31 31 31 31 31 33 34
20 19 18 15 13 12 12 13 14 14 13 13 13 13 13 13 14 15 16 16 17 17 17 17 17 18 18 19 20 20 21 23 25 27 29 31 33 35 37 40 42 41 39 37 37 38 39 39 39 39 38 37 37 36 36 36 36 35 34 34 34 34 34 33 32 32 32 31 30 30 30 29 29 29 29 30 30 31 31 30 30 30 32 33 34
19 18 18 17 14 12 12 12 13 13 13 13 13 13 13 14 15 16 17 17 18 18 18 19 19 19 19 20 21 21 22 23 25 27 28 30 32 35 37 40 41 40 38 37 37 38 39 40 39 39 39 38 37 37 36 35 35 34 34 34 34 34 34 33 33 32 32 32 31 30 30 30 29 29 29 30 30 30 30 30 31 32 33 34 34
17 17 18 17 15 13 12 12 13 13 13 13 13 13 14 15 17 17 17 17 17 18 19 20 20 20 20 20 21 22 21 23 26 27 28 30 31 34 37 39 40 39 38 37 37 37 38 39 39 40 39 39 38 38 37 36 35 35 35 34 34 34 33 33 33 33 33 32 32 31 31 30 30 30 30 31 31 31 31 32 33 33 34 34 34
16 16 16 17 15 13 12 12 13 14 14 14 14 13 14 16 18 18 18 17 17 19 21 21 21 21 21 22 22 21 21 24 27 29 30 30 32 36 38 40 41 39 38 37 37 37 38 38 38 38 38 38 37 37 36 35 35 34 34 34 34 34 33 33 33 33 33 32 32 31 31 30 30 31 31 31 31 31 32 32 33 33 33 33 33
16 15 14 15 15 13 12 12 13 14 15 15 15 14 15 16 18 19 19 19 20 21 22 22 22 23 23 24 24 23 24 26 29 31 33 33 36 38 40 41 41 39 37 37 36 36 36 35 35 35 35 34 34 34 33 33 33 33 33 33 33 32 32 32 32 32 32 31 31 31 31 30 31 31 31 31 31 31 32 32 33 33 33 33 33
15 14 13 14 14 13 12 12 13 14 15 16 16 16 16 17 17 17 18 19 21 22 23 23 24 24 25 26 26 27 28 30 32 34 36 37 39 41 41 41 39 37 37 35 34 33 33 32 32 32 33 33 33 33 32 32 31 31 32 32 32 32 31 31 31 31 31 31 31 31 31 31 31 31 31 31 31 31 32 33 33 34 34 33 33
15 14 13 13 13 13 12 11 11 12 14 16 17 18 18 18 18 17 18 20 22 22 23 25 26 26 27 28 29 30 33 35 37 38 40 41 41 41 41 39 37 36 35 33 31 31 31 31 32 32 33 33 33 32 31 30 30 29 30 30 31 31 31 30 30 30 30 30 31 31 30 30 31 31 30 30 30 31 32 33 34 34 34 34 34
14 13 13 12 12 12 11 10 10 11 12 14 16 18 18 18 18 19 21 22 22 22 25 27 28 29 31 33 35 36 38 40 41 42 41 40 39 39 38 36 35 34 32 31 31 32 32 32 32 32 32 32 32 31 30 29 29 29 29 28 29 30 31 30 30 29 29 29 30 30 30 30 30 30 29 29 29 30 31 32 33 34 33 34 34
13 13 12 11 12 12 11 10 9 11 12 13 15 16 17 17 19 21 22 23 23 24 27 29 31 33 35 36 37 38 39 40 40 39 38 37 37 37 36 35 34 32 31 32 34 34 34 33 33 33 32 31 31 30 30 30 30 30 30 29 29 30 30 30 30 29 29 29 29 28 28 29 29 29 29 28 27 27 28 30 31 32 33 34 34
11 12 11 10 11 11 11 10 9 10 12 14 15 15 16 17 19 21 22 22 24 26 28 30 32 33 34 34 35 36 37 37 36 36 36 36 36 36 35 34 34 33 34 35 35 35 34 34 33 32 32 31 31 31 30 30 30 30 30 30 30 29 29 29 29 29 29 29 28 27 26 27 27 27 28 27 26 26 25 26 28 30 31 32 33
Wind_Direction
205 207 208 213 222 229 234 237 239 240 237 236 239 242 243 242 234 216 209 218 227 229 229 228 230 235 239 239 253 274 276 276 278 287 284 273 281 290 287 288 287 285 291 294 293 293 294 294 295 296 297 298 297 297 299 302 304 302 294 288 280 268 267 277 285 291 296 300 306 311 313 313 310 304 297 293 291 291 293 295 296 296 295 293 293
206 210 209 212 221 228 231 234 238 243 243 241 242 243 242 239 234 223 213 216 222 228 231 230 236 241 250 252 251 267 278 281 283 288 291 297 301 287 281 284 281 284 292 292 291 292 293 293 295 298 300 299 299 297 298 303 307 305 295 286 277 268 269 276 282 288 293 298 303 307 309 308 305 304 300 293 291 291 293 295 295 296 296 295 294
204 211 215 218 224 230 232 233 236 242 245 245 244 242 241 240 237 231 225 229 232 237 240 241 246 247 252 262 260 252 265 279 280 285 297 313 306 285 277 274 276 288 291 289 292 293 294 293 295 299 299 300 299 296 296 300 306 307 296 284 277 274 278 282 283 287 294 301 304 305 307 307 304 305 300 292 290 291 293 295 297 298 297 296 295
204 212 218 221 224 230 233 234 236 241 246 248 247 245 244 244 244 241 234 237 239 240 244 247 252 252 250 258 266 259 264 276 280 288 305 317 300 283 272 267 285 292 290 293 297 296 297 295 295 295 297 300 298 297 296 297 303 307 297 286 280 281 285 285 283 285 294 301 304 306 308 308 307 306 300 292 290 291 294 298 301 301 298 296 296
210 217 222 223 225 231 235 237 240 247 253 253 251 250 251 252 252 249 244 242 242 242 246 250 254 257 253 255 269 274 274 269 272 281 300 303 282 275 274 278 292 293 295 302 301 300 302 301 299 293 294 298 296 296 294 295 298 297 293 289 286 285 285 284 283 286 291 297 302 307 309 309 309 305 298 293 293 296 300 304 302 298 295 295 298
215 223 229 230 232 234 239 244 249 257 263 263 259 257 258 259 259 257 253 249 247 247 250 255 257 258 257 260 269 282 282 263 262 275 285 280 269 282 290 289 295 298 304 304 295 298 301 300 300 294 294 297 298 296 291 293 292 289 288 288 289 287 284 283 285 287 291 296 302 308 309 309 307 301 295 294 298 302 305 306 300 296 296 299 303
228 231 239 242 242 243 247 254 259 264 267 266 262 259 259 260 261 260 259 257 255 254 256 260 260 257 259 266 269 277 281 264 266 277 271 264 265 277 283 287 294 297 300 291 283 289 292 292 294 293 294 294 294 292 289 289 288 287 287 288 291 290 286 284 286 289 294 299 304 308 307 305 301 294 291 295 299 303 305 303 298 297 301 304 306
247 243 247 250 250 251 255 260 262 265 266 267 264 262 260 261 262 262 261 262 261 259 260 262 260 256 256 263 269 273 271 264 272 276 265 260 261 267 272 280 287 289 286 278 276 283 285 287 290 291 293 290 286 285 283 284 286 289 292 294 293 289 285 284 287 292 297 302 305 306 304 301 296 291 292 294 298 301 302 301 300 302 304 305 305
254 252 255 257 258 257 260 262 264 266 268 269 270 269 268 268 265 263 262 260 259 258 261 262 257 253 251 250 261 271 268 271 278 275 270 267 265 265 266 272 277 280 277 270 272 281 286 289 292 293 292 288 283 282 281 284 289 295 297 297 295 291 287 284 287 292 298 302 304 303 301 298 293 292 293 295 297 299 300 302 304 303 302 300 300
263 258 257 259 260 260 262 262 264 266 267 268 269 270 269 268 266 262 260 257 254 252 255 256 250 251 254 249 259 278 280 275 272 272 278 276 271 269 266 267 272 275 273 271 272 280 290 295 297 298 297 294 290 288 288 289 293 298 298 297 295 290 285 284 288 293 297 301 301 299 296 293 292 294 295 296 297 296 297 299 299 297 295 295 296
268 262 260 259 259 260 260 260 262 264 267 271 274 275 268 260 261 263 261 255 249 241 238 242 243 253 262 260 266 279 272 265 270 279 286 278 267 266 266 268 273 276 272 268 269 277 292 298 299 302 303 301 297 293 292 292 295 299 300 296 289 283 281 284 289 293 295 297 296 293 292 291 293 295 295 296 297 296 296 295 293 292 292 293 296
267 264 262 259 259 260 260 261 263 264 268 276 285 290 280 264 262 265 264 257 247 237 228 236 244 249 257 263 268 272 268 269 277 283 285 273 259 261 266 269 276 280 276 274 275 283 293 297 300 305 307 306 302 299 300 300 299 299 296 288 280 277 280 285 290 292 293 293 291 289 288 290 292 293 293 294 296 296 295 294 293 293 294 296 299
265 263 261 259 260 261 265 268 268 269 274 284 290 291 288 283 276 269 268 263 251 241 233 238 247 247 250 258 264 270 275 277 276 275 275 266 258 265 270 275 282 287 290 294 294 295 296 298 301 305 307 308 306 305 305 299 292 288 283 278 275 278 285 289 291 290 290 289 288 286 286 288 290 290 291 292 294 294 294 294 294 296 299 303 306
271 268 265 261 259 261 266 267 269 276 285 290 282 274 277 285 287 277 272 273 265 252 245 246 250 250 252 258 265 272 275 274 274 269 263 258 263 274 279 284 289 294 299 304 307 308 306 305 306 306 306 307 306 304 301 292 282 277 273 274 280 287 293 294 291 289 289 290 291 292 292 292 293 292 292 293 293 293 293 293 296 300 305 309 310
295 288 283 271 263 262 264 263 266 278 286 288 268 252 268 281 283 279 276 278 280 270 258 255 255 258 260 263 269 273 271 270 270 263 255 257 269 281 286 290 295 299 303 308 311 311 311 309 307 306 306 305 303 298 293 286 277 272 275 283 292 296 297 294 292 294 298 300 304 306 305 303 300 297 295 294 292 290 291 295 299 303 305 307 307
332 319 312 293 280 263 259 259 263 274 273 278 265 249 269 287 284 279 280 280 281 280 274 265 261 266 266 265 268 268 266 265 262 262 265 271 280 287 292 296 298 300 303 306 307 308 309 307 304 301 297 293 287 282 280 278 276 279 288 297 301 299 295 295 300 307 310 314 317 317 315 312 305 298 295 293 292 292 295 300 302 303 304 306 305
350 341 329 309 299 265 253 249 242 252 263 268 254 251 264 278 279 278 278 280 282 283 284 280 274 266 249 250 262 256 254 258 266 275 281 285 288 290 294 296 297 299 302 304 304 303 304 304 301 294 286 280 275 275 277 280 286 294 301 302 299 296 296 301 309 314 318 320 319 319 317 314 308 301 297 295 295 297 300 302 303 304 306 307 309
354 347 338 321 305 278 257 241 232 236 255 268 247 249 254 261 271 273 273 283 291 290 288 287 276 249 237 263 276 268 263 267 275 283 287 291 291 291 293 295 297 300 301 301 301 301 302 301 297 291 286 283 281 281 285 290 297 301 301 298 297 300 306 313 318 322 323 320 317 314 314 314 310 304 300 298 299 300 302 303 305 307 309 314 322
352 345 336 326 312 284 252 232 234 235 233 236 237 245 252 258 266 267 271 288 303 295 285 285 279 256 261 275 279 277 276 279 285 290 293 293 292 291 291 293 297 298 298 298 301 302 301 299 297 295 294 292 291 294 299 304 304 301 300 302 306 309 319 326 328 329 326 321 316 312 311 311 308 305 302 300 299 300 302 305 309 315 325 341 1
349 340 331 325 313 280 249 228 222 212 183 197 226 238 248 252 253 255 264 287 311 299 281 278 282 284 287 285 284 283 282 285 290 293 291 289 290 290 291 294 295 295 296 299 302 305 305 305 305 304 304 306 311 316 320 317 309 304 308 315 319 323 330 333 333 331 328 322 314 311 311 307 304 304 303 300 299 301 306 313 326 348 18 43 61
347 340 336 336 322 283 250 237 223 197 180 199 215 228 243 241 239 246 255 276 293 286 278 280 278 280 282 279 277 276 277 281 284 283 282 286 292 296 297 296 296 297 301 306 311 315 316 316 317 321 330 339 344 339 328 317 308 307 316 326 331 334 335 334 331 327 323 317 313 314 312 308 307 308 307 305 306 312 325 355 41 62 72 82 92
349 347 347 348 335 300 252 238 228 211 196 200 206 218 228 221 232 248 257 268 273 271 274 277 277 278 278 277 276 273 272 272 275 281 291 298 302 303 302 302 307 314 321 326 331 332 329 338 359 18 16 7 355 338 328 322 318 320 328 334 336 336 335 331 325 321 319 319 322 324 323 327 333 331 330 335 356 42 76 86 89 89 91 97 101
353 354 352 349 344 337 268 241 228 221 213 206 206 213 214 210 224 242 251 256 256 258 265 277 286 285 281 281 285 295 299 289 290 300 309 313 311 311 316 328 346 357 359 355 353 3 40 60 56 53 43 20 358 348 344 340 338 338 339 339 337 336 334 329 324 324 329 341 352 0 18 32 35 41 54 69 82 90 94 94 93 93 95 99 99
355 354 349 349 349 349 319 247 222 219 212 208 210 212 210 206 211 226 244 252 246 245 257 284 300 293 284 281 285 311 328 320 320 319 315 317 325 340 1 23 33 34 31 26 31 46 56 65 66 63 54 33 15 6 356 351 350 350 351 348 346 346 346 347 352 8 31 46 55 64 69 70 73 76 79 82 85 88 89 89 89 90 92 92 85
357 355 352 353 354 352 15 72 199 199 186 184 188 188 201 207 216 233 256 270 254 244 253 282 296 299 312 327 341 346 329 320 327 327 334 8 33 40 44 50 51 50 50 49 51 56 62 70 73 69 57 40 27 13 359 358 5 10 10 10 17 27 37 51 64 71 76 79 81 82 82 82 82 81 81 82 82 83 83 83 83 83 82 77 65
2 4 6 10 18 38 61 75 129 157 145 137 136 138 150 185 202 225 247 258 238 204 182 214 229 287 20 21 26 31 37 66 71 74 71 68 65 59 57 59 60 60 58 56 59 72 79 79 74 66 54 41 31 18 11 25 37 39 43 53 64 70 76 81 83 85 86 87 87 86 85 84 82 80 79 79 78 78 77 77 76 74 71 65 59
12 17 24 32 45 58 65 74 99 120 121 116 111 113 122 114 105 123 138 142 134 122 126 155 152 108 88 78 80 94 100 96 89 84 76 69 66 63 65 66 65 66 67 66 66 79 92 89 78 63 52 44 37 36 49 62 64 68 75 80 83 85 86 86 87 88 88 88 87 85 83 81 79 78 76 75 75 74 74 73 71 69 67 64 62
22 28 38 50 58 63 66 73 86 98 103 102 100 103 105 100 97 102 104 104 99 99 111 116 106 107 108 100 98 100 96 92 87 80 73 67 63 65 74 73 65 66 72 74 73 83 94 90 79 68 61 56 55 67 78 79 81 85 87 89 90 88 87 87 89 89 88 87 85 83 81 79 78 77 76 75 74 74 73 72 71 69 67 66 64
29 37 47 57 62 67 71 76 81 85 89 90 92 92 89 86 89 90 86 82 84 96 109 108 108 109 106 100 97 94 89 86 83 78 74 69 65 69 82 79 66 67 74 73 73 75 77 79 78 77 77 77 81 86 86 85 89 91 93 94 92 90 89 90 89 88 86 85 83 81 80 79 78 78 77 76 75 75 74 73 72 71 69 68 66
35 41 51 59 65 71 75 78 80 81 81 82 83 80 76 74 76 75 73 78 89 101 108 108 107 103 98 95 91 87 82 82 83 84 82 78 74 66 73 79 67 75 83 74 69 68 69 80 86 89 92 92 92 91 89 90 93 95 96 95 92 91 90 89 87 86 85 84 83 82 81 81 80 80 79 78 77 76 75 75 74 72 71 70 69
40 45 54 62 68 75 77 77 77 76 75 74 73 69 63 62 68 76 79 87 94 100 105 104 99 93 88 86 84 81 80 80 84 89 86 80 72 49 45 65 71 83 89 79 76 81 85 91 95 97 99 98 95 93 92 93 94 95 95 93 92 90 89 88 87 86 86 85 85 84 84 83 82 81 80 79 78 76 75 74 73 72 72 71 71
43 49 59 67 72 76 75 74 72 69 67 66 66 64 64 72 79 82 85 89 93 96 97 93 86 81 78 78 79 79 79 79 80 78 69 63 51 38 48 73 84 91 91 87 92 98 99 101 102 103 103 100 97 94 94 94 94 95 95 93 92 90 89 88 87 87 87 86 86 85 84 83 81 80 79 78 77 76 75 73 72 71 71 70 70
44 51 62 70 74 76 76 72 68 66 65 68 73 75 78 83 83 84 85 87 89 90 87 82 78 74 74 76 76 76 77 70 53 50 54 56 50 55 73 88 94 97 97 97 102 104 105 106 106 105 102 99 98 98 98 98 98 97 95 94 92 91 90 89 89 88 87 86 85 84 83 81 80 79 78 77 76 74 73 72 71 70 69 69 68
43 51 63 72 76 78 77 72 68 69 72 78 81 83 82 82 81 81 82 83 83 81 78 76 74 71 70 70 68 64 58 36 35 48 59 64 68 79 90 96 100 104 106 106 106 107 107 107 105 102 100 100 101 102 102 101 99 97 95 94 93 92 91 90 88 87 86 85 84 83 82 81 80 78 76 75 74 72 71 70 69 67 67 66 66
41 50 62 73 77 79 79 74 73 76 79 82 83 81 78 76 75 75 75 75 74 73 72 71 69 66 63 58 51 42 33 34 48 62 72 78 85 95 100 102 106 111 111 109 110 110 109 107 105 104 104 104 104 104 102 100 97 96 95 94 93 92 91 89 87 86 84 83 82 81 80 79 78 77 75 74 73 72 71 70 68 67 65 65 64
39 48 61 73 79 80 80 77 77 81 83 84 82 77 74 72 70 70 70 69 68 69 68 67 63 59 53 46 42 41 49 63 72 80 86 90 98 104 107 109 112 113 112 112 112 111 109 108 108 107 106 106 105 103 101 99 97 96 94 94 93 92 90 88 87 85 84 83 82 81 80 79 78 76 75 74 73 72 71 70 69 68 66 65 64
36 45 57 70 79 82 82 81 81 83 85 84 79 73 71 71 70 69 68 67 66 65 66 65 58 50 46 47 51 56 67 79 88 95 97 100 107 111 112 114 114 114 114 114 113 111 110 109 108 107 106 104 102 101 100 99 98 96 94 93 92 90 89 87 86 85 84 83 82 81 79 78 77 76 75 73 71 71 70 70 69 68 67 66 65
36 41 52 65 75 82 84 84 85 85 84 80 75 71 70 71 71 71 69 67 66 64 64 64 58 55 55 59 65 69 79 91 98 102 103 108 113 115 116 117 116 116 116 115 113 112 110 109 107 106 104 103 101 100 99 99 98 96 93 91 90 89 88 87 86 85 84 82 80 79 78 76 75 74 73 72 71 69 69 69 69 68 68 67 66
37 39 48 60 69 78 85 87 88 87 83 77 72 70 70 72 73 72 70 68 67 66 65 65 63 62 62 67 74 80 89 98 103 105 108 113 116 118 119 119 118 118 117 116 113 111 109 108 106 104 103 103 101 99 98 96 95 94 92 90 88 88 87 86 85 84 82 81 79 77 76 75 74 72 71 70 69 69 69 68 68 68 68 67 66
36 40 45 55 65 72 81 87 89 88 85 80 75 72 73 75 76 73 71 69 70 70 67 66 66 67 70 76 83 88 94 101 107 109 111 114 117 120 122 121 120 120 118 116 112 110 109 107 106 105 103 102 100 97 95 93 92 91 90 89 88 86 85 83 82 81 80 79 78 77 76 74 73 72 70 69 68 68 69 69 68 67 67 67 67
33 38 42 49 59 67 76 85 89 89 88 86 82 80 79 79 77 74 73 73 73 73 72 71 73 76 79 85 91 94 98 106 112 113 113 114 118 122 123 122 122 121 118 114 111 110 109 108 107 106 103 101 98 95 93 91 90 89 89 88 86 84 83 81 80 79 79 78 77 76 75 74 72 71 70 70 70 70 70 70 69 68 69 69 69
29 34 39 42 50 60 71 81 88 90 90 89 88 86 83 80 79 79 80 80 80 82 82 80 80 83 86 92 98 101 106 113 118 118 116 115 119 123 124 123 124 122 118 115 112 111 109 108 107 105 102 100 98 95 93 92 90 89 88 86 84 82 81 80 79 78 77 76 76 75 75 74 73 72 71 72 72 72 72 72 72 73 72 72 71
27 30 36 38 42 52 65 78 87 92 92 91 91 89 85 82 83 86 89 91 92 91 89 86 84 87 92 99 103 106 109 116 123 124 121 117 119 122 123 124 125 122 119 116 114 113 111 108 105 102 101 99 97 96 94 92 90 89 86 84 82 80 78 78 77 77 76 76 76 76 76 76 75 75 74 74 74 74 75 76 76 76 76 75 73
27 28 32 37 39 46 60 74 86 93 94 93 92 90 88 88 91 95 99 101 99 95 92 90 89 90 97 103 107 109 108 112 121 126 125 121 120 122 123 125 125 123 120 118 116 114 112 108 104 101 100 98 97 95 93 92 90 88 85 83 81 78 77 76 76 76 76 76 76 76 76 76 76 76 76 76 76 77 78 78 78 77 76 75 73
29 28 30 36 40 45 57 72 84 92 95 94 94 93 92 96 100 103 105 103 101 99 95 93 93 95 100 105 108 110 109 111 117 122 124 122 121 123 124 125 125 123 121 119 116 114 112 109 105 102 100 98 96 94 92 90 88 86 84 81 79 77 75 75 76 76 75 75 75 75 75 75 75 75 76 77 78 79 79 78 77 76 75 74 73
31 30 30 36 42 47 56 71 83 91 94 95 96 97 96 101 108 109 105 102 101 99 95 93 97 100 103 106 107 108 110 114 117 120 122 122 122 124 124 126 125 123 121 118 114 112 111 109 106 103 100 98 96 94 92 90 87 84 81 79 77 75 74 74 75 75 75 76 76 76 75 75 75 76 77 79 80 81 80 78 77 77 76 75 74
31 32 33 36 43 49 55 68 83 92 97 99 100 100 98 100 110 112 106 104 103 98 93 95 99 103 105 106 107 108 111 115 118 119 121 122 123 124 125 126 124 122 119 115 112 111 110 108 105 103 100 98 96 94 92 89 86 82 79 76 75 74 74 74 74 75 76 77 77 76 75 75 76 78 80 82 84 84 82 80 80 79 78 76 76
30 33 35 37 44 51 55 63 79 94 103 106 104 103 101 101 105 108 108 108 105 98 96 98 100 103 105 106 108 110 112 114 116 118 120 122 123 124 126 126 123 121 117 113 111 110 109 106 103 101 99 96 95 93 91 88 84 80 77 75 74 74 74 74 74 74 75 76 76 76 76 76 77 78 81 83 85 85 84 83 82 80 78 78 78
29 33 37 39 45 53 58 61 73 92 107 114 111 105 104 103 103 106 108 109 104 101 101 102 103 105 106 108 110 111 112 113 115 118 119 121 122 124 125 124 122 121 117 112 111 109 107 105 103 100 99 97 95 93 91 88 85 82 79 77 75 74 74 73 73 73 73 73 73 74 75 76 77 78 80 82 83 85 86 85 82 81 80 80 79
27 31 37 42 47 55 62 68 76 90 103 116 118 111 106 106 107 108 109 107 103 103 107 108 109 109 108 108 110 112 113 114 116 118 119 121 122 124 124 122 121 120 117 114 111 108 106 105 103 102 100 98 96 93 91 89 86 84 82 80 78 76 75 74 74 74 73 72 72 73 75 76 76 77 78 79 82 86 88 86 83 82 81 80 78
25 29 36 44 51 57 65 74 84 96 102 109 118 119 114 112 112 112 111 108 105 108 112 114 113 112 111 110 111 113 115 117 119 120 121 122 122 122 122 121 120 118 117 114 112 109 107 106 104 103 101 99 96 94 92 90 87 85 83 81 79 77 76 76 77 76 75 73 74 75 77 76 76 75 75 76 80 84 87 86 83 81 80 79 77
Height
10942 10943 10943 10943 10944 10944 10945 10945 10946 10946 10947 10948 10948 10949 10950 10951 10953 10954 10955 10956 10956 10956 10956 10955 10955 10955 10955 10955 10955 10955 10955 10955 10956 10957 10958 10959 10959 10958 10958 10957 10957 10956 10954 10952 10950 10948 10947 10947 10946 10945 10944 10942 10940 10939 10937 10936 10935 10935 10935 10937 10938 10938 10937 10936 10935 10934 10934 10933 10932 10930 10929 10927 10925 10924 10922 10920 10919 10917 10916 10915 10914 10913 10912 10910 10909
10941 10941 10942 10942 10942 10943 10943 10943 10944 10944 10945 10946 10946 10947 10949 10950 10951 10953 10954 10955 10955 10955 10955 10955 10955 10955 10955 10954 10954 10953 10954 10954 10955 10956 10957 10958 10957 10956 10956 10957 10957 10956 10954 10951 10949 10948 10946 10945 10944 10943 10941 10940 10938 10937 10936 10935 10934 10932 10932 10934 10935 10936 10936 10935 10933 10931 10931 10930 10930 10929 10927 10926 10924 10922 10920 10919 10917 10916 10915 10914 10913 10912 10911 10909 10908
10940 10940 10940 10941 10941 10942 10942 10942 10942 10943 10944 10944 10945 10946 10948 10949 10950 10951 10953 10954 10954 10954 10954 10954 10955 10954 10954 10954 10953 10952 10952 10953 10954 10955 10956 10956 10955 10955 10955 10956 10956 10956 10954 10951 10950 10948 10946 10944 10943 10941 10940 10938 10937 10937 10935 10934 10933 10931 10930 10931 10932 10933 10934 10933 10931 10929 10928 10927 10926 10925 10924 10923 10922 10920 10919 10917 10916 10915 10914 10913 10912 10911 10910 10908 10906
10939 10940 10940 10940 10940 10940 10941 10941 10941 10942 10942 10943 10944 10945 10947 10948 10949 10950 10951 10952 10953 10954 10953 10953 10954 10953 10953 10953 10952 10952 10951 10951 10952 10953 10954 10955 10955 10953 10954 10955 10955 10955 10954 10952 10950 10949 10947 10943 10942 10940 10939 10938 10937 10936 10935 10934 10932 10931 10930 10929 10929 10929 10930 10930 10929 10928 10926 10924 10923 10921 10919 10918 10917 10916 10915 10914 10913 10913 10912 10911 10910 10909 10908 10906 10905
10938 10939 10939 10939 10939 10940 10940 10940 10941 10941 10941 10942 10942 10944 10945 10947 10948 10949 10950 10951 10952 10953 10952 10952 10952 10952 10952 10952 10951 10950 10949 10949 10950 10951 10953 10954 10955 10953 10953 10953 10953 10954 10953 10952 10951 10949 10948 10943 10940 10938 10938 10938 10937 10936 10934 10933 10932 10931 10930 10928 10927 10926 10926 10926 10926 10926 10925 10923 10921 10918 10916 10914 10912 10911 10910 10909 10909 10909 10908 10908 10908 10907 10905 10904 10902
10938 10939 10939 10939 10939 10939 10939 10940 10940 10940 10940 10940 10941 10942 10944 10945 10946 10947 10948 10950 10951 10951 10951 10951 10951 10951 10951 10950 10950 10949 10948 10948 10948 10949 10951 10953 10954 10954 10953 10951 10951 10952 10953 10952 10950 10950 10948 10944 10939 10937 10937 10937 10937 10935 10934 10933 10932 10930 10930 10928 10927 10925 10923 10922 10921 10922 10922 10921 10919 10916 10914 10911 10909 10907 10906 10905 10904 10904 10904 10904 10904 10903 10902 10900 10899
10938 10938 10938 10938 10939 10939 10939 10939 10940 10940 10940 10940 10940 10941 10942 10943 10944 10945 10946 10948 10949 10950 10949 10948 10949 10949 10949 10949 10948 10948 10947 10946 10946 10946 10948 10950 10952 10953 10952 10950 10949 10950 10951 10950 10949 10949 10948 10944 10939 10936 10937 10937 10936 10935 10933 10932 10931 10930 10929 10928 10927 10925 10922 10920 10918 10917 10917 10916 10915 10914 10912 10910 10908 10907 10905 10903 10902 10902 10901 10901 10900 10899 10898 10897 10896
10938 10938 10938 10938 10938 10938 10938 10939 10939 10939 10939 10938 10939 10939 10940 10941 10942 10944 10945 10946 10947 10948 10947 10946 10946 10947 10947 10947 10947 10946 10946 10945 10944 10944 10945 10947 10949 10950 10950 10949 10948 10948 10949 10948 10946 10947 10946 10944 10940 10937 10936 10936 10936 10935 10933 10931 10930 10929 10928 10928 10927 10925 10922 10919 10917 10915 10913 10912 10911 10910 10909 10908 10907 10906 10905 10903 10902 10901 10900 10899 10898 10898 10897 10895 10894
10938 10938 10938 10938 10937 10937 10938 10938 10938 10938 10938 10938 10938 10938 10938 10939 10940 10942 10943 10944 10946 10946 10945 10943 10944 10944 10945 10945 10945 10945 10944 10943 10942 10942 10942 10943 10945 10947 10948 10948 10947 10946 10946 10945 10944 10944 10944 10942 10940 10937 10935 10934 10934 10933 10932 10931 10930 10928 10927 10927 10925 10924 10922 10919 10917 10914 10911 10909 10907 10906 10905 10904 10904 10903 10903 10902 10901 10900 10899 10898 10897 10896 10895 10894 10893
10937 10937 10937 10937 10937 10937 10937 10937 10937 10937 10937 10937 10937 10936 10937 10937 10938 10939 10940 10942 10944 10946 10945 10942 10941 10942 10942 10943 10943 10943 10942 10941 10941 10940 10940 10940 10941 10943 10944 10946 10946 10945 10945 10944 10942 10941 10941 10940 10939 10937 10935 10933 10932 10931 10930 10930 10929 10927 10926 10925 10924 10923 10921 10919 10916 10913 10910 10907 10904 10903 10902 10901 10901 10900 10900 10900 10899 10898 10897 10896 10895 10895 10894 10893 10892
10936 10936 10936 10936 10936 10936 10936 10936 10936 10936 10936 10936 10935 10935 10935 10935 10936 10937 10938 10940 10942 10945 10946 10942 10940 10941 10940 10940 10941 10941 10941 10940 10940 10939 10938 10937 10937 10938 10940 10942 10943 10944 10944 10943 10941 10939 10938 10937 10937 10936 10935 10933 10931 10930 10929 10928 10927 10925 10924 10922 10922 10921 10920 10918 10915 10912 10909 10906 10904 10902 10901 10900 10899 10899 10898 10898 10897 10896 10896 10895 10894 10893 10893 10892 10891
10934 10934 10934 10935 10935 10935 10935 10935 10935 10935 10935 10935 10934 10933 10933 10933 10934 10934 10935 10937 10939 10942 10944 10942 10940 10941 10940 10939 10939 10939 10940 10940 10939 10938 10936 10935 10934 10935 10936 10937 10939 10940 10940 10940 10939 10937 10936 10935 10934 10934 10933 10931 10930 10928 10927 10926 10924 10923 10922 10921 10920 10919 10918 10916 10914 10911 10908 10906 10904 10902 10901 10900 10899 10899 10898 10897 10897 10896 10895 10894 10893 10893 10892 10891 10889
10933 10933 10933 10933 10933 10934 10934 10934 10933 10933 10934 10934 10933 10932 10932 10932 10932 10932 10933 10934 10936 10939 10941 10941 10939 10939 10939 10938 10938 10938 10938 10938 10937 10936 10934 10933 10933 10932 10933 10934 10935 10936 10936 10936 10935 10934 10933 10932 10932 10931 10930 10929 10927 10925 10924 10923 10922 10922 10921 10920 10919 10917 10916 10914 10912 10910 10907 10905 10904 10903 10902 10901 10900 10899 10898 10897 10897 10896 10895 10894 10893 10892 10891 10890 10889
10931 10931 10931 10931 10932 10932 10932 10932 10932 10932 10933 10934 10933 10930 10929 10931 10931 10931 10931 10932 10934 10936 10938 10939 10938 10937 10937 10936 10936 10936 10935 10935 10935 10934 10933 10932 10931 10931 10931 10931 10931 10931 10932 10932 10932 10931 10930 10929 10928 10928 10927 10926 10924 10923 10922 10921 10921 10920 10919 10918 10917 10915 10914 10912 10910 10908 10907 10905 10904 10903 10902 10900 10899 10898 10898 10897 10896 10896 10895 10894 10893 10892 10891 10889 10888
10930 10930 10930 10930 10930 10931 10931 10930 10930 10931 10932 10932 10932 10928 10927 10929 10930 10930 10930 10931 10932 10933 10935 10936 10936 10935 10935 10934 10933 10933 10933 10933 10933 10932 10932 10931 10930 10930 10929 10928 10928 10928 10928 10929 10928 10928 10926 10926 10925 10925 10924 10923 10922 10921 10920 10919 10918 10917 10917 10915 10914 10913 10912 10910 10909 10907 10906 10905 10904 10903 10901 10900 10899 10898 10897 10897 10896 10895 10894 10893 10892 10892 10890 10889 10888
10930 10929 10929 10929 10929 10931 10930 10929 10930 10931 10931 10931 10931 10927 10926 10928 10929 10929 10929 10930 10931 10931 10933 10933 10934 10934 10933 10932 10932 10931 10931 10931 10931 10931 10931 10930 10930 10928 10927 10926 10926 10926 10926 10927 10926 10926 10925 10924 10923 10923 10922 10922 10921 10920 10919 10917 10916 10915 10914 10913 10912 10911 10910 10909 10908 10907 10906 10904 10903 10902 10900 10899 10898 10897 10897 10896 10895 10894 10893 10893 10892 10891 10890 10889 10888
10929 10929 10929 10929 10929 10929 10928 10928 10929 10930 10931 10931 10930 10928 10928 10929 10929 10928 10928 10929 10929 10930 10931 10931 10932 10932 10932 10931 10931 10930 10930 10930 10930 10930 10930 10929 10928 10927 10926 10925 10924 10924 10924 10925 10925 10924 10923 10922 10921 10921 10920 10920 10920 10919 10918 10916 10915 10913 10912 10911 10910 10909 10908 10907 10906 10905 10904 10903 10902 10900 10899 10898 10897 10896 10896 10895 10894 10893 10892 10892 10891 10890 10889 10888 10887
10928 10928 10928 10928 10928 10928 10927 10928 10928 10929 10930 10930 10929 10927 10928 10929 10929 10928 10928 10928 10928 10928 10929 10929 10930 10930 10930 10930 10930 10930 10929 10929 10929 10928 10928 10927 10926 10925 10924 10923 10923 10922 10922 10923 10923 10922 10921 10919 10918 10918 10918 10917 10917 10917 10916 10915 10914 10912 10911 10910 10909 10908 10907 10906 10905 10904 10903 10902 10900 10899 10898 10896 10896 10895 10894 10893 10892 10892 10891 10890 10890 10889 10888 10886 10885
10928 10928 10928 10928 10928 10927 10927 10927 10928 10928 10929 10929 10927 10926 10927 10929 10929 10928 10928 10927 10926 10926 10927 10927 10928 10928 10928 10928 10928 10928 10928 10927 10927 10926 10925 10925 10924 10924 10923 10922 10921 10921 10921 10921 10921 10920 10919 10917 10916 10916 10915 10915 10915 10915 10914 10914 10913 10912 10911 10910 10909 10908 10906 10905 10904 10903 10901 10900 10899 10897 10896 10895 10894 10893 10892 10891 10891 10890 10890 10889 10888 10887 10886 10886 10885
10928 10928 10927 10927 10927 10927 10928 10927 10927 10928 10929 10930 10928 10925 10926 10927 10927 10927 10927 10926 10925 10924 10925 10925 10926 10926 10926 10926 10926 10926 10925 10925 10924 10924 10923 10923 10923 10922 10921 10921 10920 10920 10919 10919 10919 10918 10917 10916 10915 10914 10914 10914 10913 10913 10913 10913 10913 10912 10911 10910 10909 10907 10906 10904 10903 10901 10900 10899 10897 10896 10894 10893 10892 10891 10890 10890 10889 10889 10888 10888 10887 10886 10886 10885 10885
10927 10927 10926 10926 10926 10926 10927 10927 10927 10928 10930 10931 10929 10927 10926 10926 10925 10925 10925 10924 10923 10923 10923 10924 10924 10924 10924 10924 10924 10924 10923 10923 10922 10922 10922 10922 10921 10921 10921 10920 10919 10919 10918 10917 10917 10916 10916 10915 10915 10914 10913 10913 10913 10913 10913 10913 10913 10912 10911 10910 10908 10906 10905 10903 10902 10900 10899 10897 10896 10894 10893 10892 10891 10890 10890 10889 10888 10888 10888 10887 10887 10886 10886 10886 10886
10926 10926 10925 10925 10925 10925 10925 10925 10926 10927 10929 10929 10928 10927 10926 10924 10923 10923 10923 10923 10922 10922 10922 10922 10922 10922 10922 10922 10922 10922 10922 10921 10921 10921 10920 10920 10920 10920 10920 10920 10919 10918 10916 10916 10915 10916 10916 10915 10915 10914 10914 10913 10913 10913 10914 10913 10913 10912 10910 10909 10907 10905 10903 10902 10900 10899 10898 10897 10895 10894 10893 10892 10891 10890 10889 10888 10888 10887 10887 10887 10886 10886 10886 10886 10886
10925 10925 10924 10924 10924 10923 10923 10923 10924 10925 10926 10926 10926 10925 10925 10923 10922 10922 10922 10921 10921 10920 10920 10920 10920 10920 10920 10920 10920 10920 10920 10920 10920 10919 10919 10919 10920 10919 10919 10919 10918 10917 10916 10915 10915 10916 10916 10915 10915 10915 10914 10914 10914 10914 10914 10913 10912 10911 10909 10907 10905 10904 10902 10901 10900 10898 10897 10896 10895 10894 10894 10892 10891 10891 10890 10889 10888 10888 10888 10887 10887 10887 10887 10887 10887
10924 10924 10923 10923 10922 10922 10922 10922 10922 10923 10923 10923 10923 10923 10923 10922 10921 10921 10921 10920 10919 10919 10918 10918 10918 10918 10918 10919 10919 10919 10919 10919 10919 10919 10919 10919 10919 10919 10918 10918 10917 10917 10917 10916 10916 10916 10916 10915 10915 10915 10915 10915 10914 10914 10913 10912 10911 10910 10908 10906 10904 10903 10901 10900 10899 10899 10898 10897 10896 10896 10895 10894 10893 10892 10891 10890 10890 10890 10889 10889 10889 10889 10889 10889 10889
10923 10923 10922 10921 10921 10920 10920 10920 10921 10921 10921 10922 10921 10921 10921 10921 10920 10920 10919 10919 10918 10917 10917 10917 10918 10918 10918 10918 10918 10918 10918 10918 10918 10918 10919 10918 10918 10918 10918 10918 10918 10918 10918 10917 10916 10916 10916 10916 10916 10916 10916 10915 10915 10914 10913 10912 10911 10909 10907 10906 10904 10903 10902 10901 10900 10899 10899 10898 10898 10897 10897 10896 10895 10894 10893 10893 10892 10892 10892 10891 10891 10891 10891 10891 10890
10923 10922 10921 10920 10920 10919 10919 10919 10919 10920 10920 10920 10920 10920 10920 10920 10919 10919 10918 10918 10917 10917 10916 10916 10917 10917 10917 10917 10917 10918 10918 10918 10918 10918 10918 10918 10918 10918 10918 10919 10919 10919 10918 10917 10917 10916 10916 10916 10916 10916 10916 10916 10915 10914 10914 10912 10911 10909 10908 10907 10906 10904 10904 10902 10902 10901 10901 10901 10900 10900 10899 10898 10897 10897 10896 10896 10895 10894 10894 10894 10893 10893 10893 10892 10891
10923 10921 10920 10919 10919 10918 10918 10918 10919 10919 10919 10919 10919 10919 10919 10919 10918 10918 10917 10917 10916 10916 10916 10916 10916 10916 10917 10917 10917 10917 10917 10917 10917 10918 10918 10918 10918 10918 10919 10919 10919 10919 10918 10918 10917 10917 10917 10916 10917 10917 10917 10916 10915 10915 10914 10913 10911 10910 10909 10909 10908 10907 10906 10905 10904 10904 10903 10903 10902 10902 10901 10900 10900 10899 10899 10898 10897 10897 10896 10896 10895 10895 10894 10893 10892
10923 10922 10921 10919 10919 10918 10918 10918 10918 10918 10919 10919 10919 10919 10919 10918 10918 10917 10917 10916 10916 10915 10915 10916 10916 10916 10916 10916 10916 10916 10916 10917 10917 10918 10918 10918 10919 10919 10919 10920 10920 10919 10919 10918 10918 10917 10917 10917 10917 10917 10917 10916 10916 10916 10915 10914 10913 10912 10912 10911 10911 10910 10909 10908 10907 10907 10906 10905 10905 10904 10904 10903 10902 10902 10901 10900 10900 10899 10898 10898 10897 10897 10896 10895 10894
10924 10922 10921 10920 10919 10918 10918 10918 10918 10918 10918 10919 10919 10919 10919 10918 10918 10917 10917 10916 10915 10915 10915 10915 10915 10915 10915 10916 10916 10916 10916 10917 10917 10917 10918 10918 10919 10920 10920 10920 10920 10919 10919 10918 10918 10918 10918 10918 10918 10917 10917 10917 10917 10917 10916 10915 10915 10914 10914 10914 10913 10912 10911 10911 10910 10909 10908 10908 10907 10907 10906 10906 10905 10904 10904 10903 10902 10902 10901 10901 10900 10899 10898 10897 10896
10924 10923 10922 10920 10919 10919 10919 10918 10918 10918 10918 10919 10919 10919 10918 10918 10918 10917 10916 10916 10915 10915 10915 10915 10915 10915 10915 10916 10916 10916 10916 10917 10917 10917 10918 10919 10919 10920 10920 10920 10919 10919 10919 10918 10918 10918 10918 10918 10918 10918 10918 10918 10918 10918 10918 10918 10917 10917 10917 10916 10915 10914 10914 10913 10913 10912 10911 10911 10911 10910 10910 10909 10908 10908 10907 10906 10906 10905 10905 10904 10903 10902 10901 10900 10899
10926 10924 10923 10921 10920 10920 10919 10919 10919 10919 10919 10919 10919 10919 10918 10918 10917 10917 10916 10916 10915 10915 10915 10915 10915 10915 10915 10916 10916 10916 10917 10917 10918 10918 10918 10918 10919 10920 10920 10919 10919 10919 10918 10918 10919 10919 10919 10919 10919 10919 10919 10919 10920 10920 10920 10920 10920 10920 10919 10918 10917 10917 10916 10916 10916 10915 10915 10914 10914 10914 10913 10912 10912 10911 10910 10910 10909 10909 10908 10907 10906 10905 10904 10903 10901
10927 10925 10924 10923 10922 10921 10920 10920 10920 10920 10920 10919 10919 10919 10918 10918 10917 10917 10916 10916 10916 10916 10916 10915 10915 10916 10916 10916 10917 10917 10917 10918 10918 10918 10918 10918 10919 10919 10919 10919 10919 10919 10918 10919 10919 10920 10920 10920 10921 10921 10921 10921 10922 10922 10922 10923 10924 10923 10922 10921 10920 10919 10919 10919 10919 10919 10919 10918 10918 10917 10917 10916 10915 10914 10914 10913 10912 10912 10911 10910 10909 10908 10907 10905 10904
10927 10926 10925 10924 10923 10922 10922 10921 10921 10921 10921 10920 10920 10920 10919 10919 10918 10917 10917 10916 10916 10916 10916 10916 10916 10917 10917 10917 10917 10917 10918 10919 10919 10918 10918 10918 10919 10919 10919 10919 10919 10919 10919 10920 10921 10921 10921 10922 10923 10923 10924 10924 10924 10925 10925 10926 10927 10926 10925 10923 10922 10922 10923 10923 10923 10923 10923 10922 10921 10921 10920 10919 10918 10918 10917 10916 10915 10915 10914 10912 10911 10911 10910 10908 10907
10928 10927 10926 10925 10925 10924 10923 10923 10923 10922 10922 10922 10922 10921 10921 10920 10919 10918 10918 10918 10918 10917 10917 10917 10917 10918 10918 10918 10918 10918 10918 10919 10918 10918 10917 10918 10919 10919 10919 10919 10919 10920 10920 10921 10922 10923 10924 10925 10925 10926 10926 10927 10927 10928 10928 10929 10929 10929 10928 10926 10925 10926 10926 10927 10927 10927 10926 10926 10925 10924 10924 10923 10922 10922 10921 10920 10919 10918 10917 10915 10914 10914 10913 10912 10911
10929 10929 10928 10927 10926 10925 10925 10924 10924 10924 10923 10923 10923 10923 10922 10921 10920 10920 10919 10919 10919 10918 10918 10918 10918 10918 10918 10918 10918 10918 10918 10918 10918 10918 10918 10918 10919 10920 10920 10920 10921 10922 10922 10923 10925 10926 10927 10928 10928 10929 10929 10930 10930 10931 10932 10932 10932 10932 10931 10930 10929 10929 10930 10930 10930 10930 10930 10929 10929 10928 10927 10926 10926 10925 10924 10923 10922 10921 10920 10918 10918 10917 10916 10915 10914
10931 10930 10929 10929 10928 10927 10926 10926 10926 10925 10925 10925 10925 10924 10923 10923 10922 10921 10921 10921 10920 10920 10919 10919 10919 10919 10918 10918 10918 10918 10918 10918 10918 10918 10919 10919 10920 10921 10921 10922 10923 10924 10925 10926 10928 10929 10930 10931 10931 10932 10933 10933 10934 10935 10935 10935 10935 10935 10934 10933 10933 10933 10934 10934 10934 10934 10933 10933 10932 10931 10930 10930 10929 10928 10927 10927 10926 10924 10923 10922 10921 10920 10919 10918 10917
10932 10931 10931 10930 10930 10929 10928 10927 10927 10927 10927 10926 10926 10925 10925 10924 10924 10923 10923 10922 10921 10921 10921 10920 10920 10920 10919 10918 10918 10918 10918 10919 10919 10919 10920 10920 10922 10923 10923 10924 10925 10927 10928 10930 10932 10932 10933 10934 10935 10935 10936 10937 10938 10938 10938 10938 10938 10938 10938 10937 10937 10937 10937 10937 10937 10937 10937 10936 10936 10935 10934 10933 10932 10931 10931 10930 10929 10928 10926 10925 10924 10923 10922 10922 10921
10934 10932 10932 10931 10931 10930 10930 10929 10929 10928 10928 10928 10928 10927 10927 10926 10925 10925 10924 10923 10923 10922 10922 10922 10921 10921 10920 10919 10919 10919 10919 10920 10920 10920 10921 10922 10924 10925 10926 10927 10928 10930 10932 10934 10935 10936 10937 10938 10938 10939 10940 10941 10942 10942 10942 10941 10941 10941 10941 10942 10941 10941 10941 10941 10940 10940 10940 10940 10939 10939 10937 10937 10936 10935 10934 10933 10932 10931 10930 10929 10928 10927 10926 10925 10924
10936 10934 10933 10932 10932 10932 10931 10931 10931 10930 10930 10930 10930 10929 10928 10928 10927 10926 10925 10925 10924 10924 10924 10923 10923 10922 10921 10920 10920 10920 10921 10921 10921 10922 10923 10924 10926 10927 10929 10930 10932 10934 10935 10937 10938 10939 10940 10941 10942 10943 10944 10944 10945 10945 10945 10944 10944 10944 10944 10945 10945 10945 10945 10944 10944 10943 10943 10943 10942 10942 10941 10940 10940 10939 10938 10937 10936 10935 10933 10932 10931 10931 10929 10928 10928
10938 10936 10935 10934 10933 10933 10933 10932 10932 10932 10932 10931 10931 10931 10930 10929 10928 10928 10927 10926 10926 10926 10925 10925 10924 10923 10922 10922 10922 10922 10922 10922 10923 10924 10926 10927 10928 10930 10932 10933 10935 10937 10939 10940 10941 10942 10944 10945 10945 10947 10947 10948 10948 10948 10948 10948 10948 10948 10948 10948 10949 10949 10948 10948 10947 10947 10946 10946 10945 10945 10944 10944 10943 10942 10941 10940 10940 10938 10937 10936 10935 10934 10933 10932 10932
10939 10938 10937 10936 10935 10934 10934 10933 10933 10933 10933 10933 10932 10932 10932 10931 10930 10929 10928 10928 10928 10928 10928 10927 10926 10925 10924 10924 10924 10924 10925 10925 10926 10928 10929 10930 10931 10933 10935 10936 10938 10940 10942 10944 10945 10946 10947 10948 10949 10950 10950 10951 10951 10951 10951 10951 10951 10951 10951 10952 10952 10952 10951 10951 10951 10951 10950 10949 10949 10948 10948 10947 10946 10945 10944 10944 10943 10942 10941 10939 10938 10937 10937 10936 10935
10941 10940 10938 10938 10937 10936 10936 10935 10935 10934 10934 10934 10934 10934 10934 10933 10932 10931 10930 10930 10930 10930 10930 10929 10928 10927 10926 10926 10927 10927 10927 10928 10930 10931 10932 10933 10935 10936 10938 10940 10941 10943 10945 10948 10949 10950 10951 10951 10952 10953 10953 10954 10954 10954 10954 10954 10954 10954 10955 10955 10956 10956 10955 10955 10955 10954 10954 10953 10952 10952 10951 10950 10949 10948 10948 10947 10946 10945 10944 10942 10941 10941 10940 10939 10938
10943 10941 10940 10939 10938 10938 10937 10937 10936 10936 10936 10936 10936 10935 10935 10935 10934 10933 10933 10933 10933 10933 10932 10931 10930 10929 10928 10929 10929 10930 10930 10931 10932 10934 10935 10937 10939 10940 10941 10943 10945 10946 10949 10951 10952 10953 10954 10955 10956 10956 10956 10956 10957 10957 10957 10957 10957 10958 10958 10958 10959 10959 10959 10958 10958 10958 10957 10956 10956 10955 10954 10953 10952 10952 10951 10951 10950 10949 10947 10946 10945 10944 10943 10942 10941
10945 10943 10941 10940 10940 10939 10939 10938 10938 10937 10937 10937 10937 10937 10937 10937 10936 10936 10936 10936 10936 10935 10934 10933 10932 10931 10931 10931 10932 10932 10933 10934 10935 10936 10938 10940 10942 10943 10944 10946 10948 10950 10952 10954 10956 10957 10957 10958 10959 10959 10959 10959 10959 10959 10960 10960 10961 10961 10961 10962 10962 10962 10962 10961 10961 10960 10959 10959 10958 10957 10957 10956 10955 10955 10954 10954 10954 10953 10951 10949 10948 10947 10946 10945 10944
10947 10945 10944 10942 10941 10941 10941 10940 10939 10939 10939 10939 10939 10939 10939 10939 10939 10939 10939 10938 10938 10937 10936 10935 10934 10934 10933 10933 10934 10935 10936 10936 10937 10939 10941 10943 10945 10946 10948 10949 10951 10954 10956 10957 10959 10960 10960 10961 10962 10962 10962 10962 10962 10962 10963 10963 10964 10964 10964 10965 10965 10965 10964 10964 10963 10962 10961 10961 10960 10960 10959 10959 10958 10958 10957 10957 10957 10956 10954 10953 10952 10951 10950 10949 10948
10950 10948 10947 10945 10944 10943 10943 10942 10941 10941 10940 10941 10941 10941 10941 10941 10941 10941 10941 10941 10940 10939 10938 10937 10937 10936 10936 10936 10937 10938 10939 10940 10941 10942 10944 10946 10947 10949 10951 10953 10955 10957 10959 10961 10962 10963 10963 10964 10964 10965 10965 10965 10965 10965 10966 10966 10967 10967 10967 10967 10967 10967 10966 10966 10965 10965 10964 10964 10964 10963 10963 10962 10962 10961 10961 10961 10960 10959 10958 10956 10955 10954 10953 10952 10951
10952 10951 10949 10948 10946 10946 10945 10945 10944 10943 10943 10943 10943 10943 10944 10943 10943 10943 10944 10944 10943 10942 10941 10940 10939 10939 10940 10940 10940 10941 10942 10943 10944 10945 10947 10949 10951 10952 10954 10957 10959 10961 10963 10964 10965 10966 10966 10967 10967 10967 10967 10967 10968 10968 10968 10969 10969 10970 10970 10970 10970 10969 10969 10969 10968 10968 10968 10968 10967 10966 10966 10966 10965 10965 10965 10964 10964 10962 10960 10959 10958 10958 10957 10956 10955
10954 10953 10952 10950 10949 10948 10947 10947 10947 10946 10946 10945 10945 10946 10946 10946 10946 10946 10946 10946 10946 10946 10945 10944 10943 10943 10944 10944 10944 10945 10946 10947 10948 10949 10951 10953 10955 10956 10958 10960 10963 10964 10966 10967 10968 10968 10969 10969 10969 10970 10970 10970 10970 10971 10971 10972 10972 10973 10973 10973 10972 10972 10972 10972 10971 10971 10971 10971 10971 10970 10969 10969 10969 10968 10968 10968 10967 10965 10963 10963 10962 10961 10960 10960 10960
10956 10955 10954 10952 10951 10950 10950 10950 10949 10949 10948 10948 10948 10948 10949 10949 10949 10948 10949 10949 10949 10949 10949 10948 10948 10948 10948 10948 10949 10949 10950 10951 10952 10954 10956 10957 10959 10960 10962 10964 10966 10968 10969 10970 10970 10971 10971 10972 10972 10972 10972 10973 10974 10974 10975 10975 10976 10976 10976 10976 10976 10976 10975 10975 10975 10975 10975 10974 10974 10973 10973 10972 10972 10972 10971 10971 10970 10969 10968 10967 10966 10965 10964 10964 10964
10958 10957 10956 10954 10953 10952 10952 10952 10952 10952 10951 10950 10950 10950 10951 10951 10951 10951 10952 10952 10952 10953 10953 10953 10953 10953 10953 10953 10954 10954 10955 10956 10957 10958 10960 10961 10963 10964 10966 10967 10969 10970 10971 10972 10973 10973 10974 10974 10974 10975 10976 10976 10977 10978 10978 10978 10979 10979 10979 10979 10978 10978 10978 10978 10977 10977 10977 10977 10977 10976 10976 10976 10976 10975 10975 10974 10973 10972 10972 10971 10969 10969 10969 10968 10966
10960 10959 10957 10956 10956 10955 10954 10954 10954 10954 10954 10953 10953 10953 10953 10954 10954 10954 10955 10955 10956 10956 10957 10957 10957 10957 10957 10958 10959 10959 10959 10960 10961 10962 10964 10965 10966 10967 10969 10970 10971 10972 10973 10974 10975 10976 10976 10977 10978 10978 10979 10980 10980 10981 10981 10982 10982 10982 10982 10982 10981 10981 10981 10980 10980 10980 10980 10980 10979 10979 10979 10979 10979 10978 10977 10977 10977 10976 10975 10974 10973 10973 10972 10970 10969